Weather observations for the past three days for
LaGrange-Callaway Airport
Metric (Imperial)
Date Time (edt) Wind (kph) Vis. (km) Weather Sky Cond. Temperature (ºC) Relative Humidity Wind Chill (°C) Heat Index (°C) Pressure Precipitation (cm)
Air Dwpt 6 hour altimeter (cm) sea level (mb) 1 hr 3 hr 6 hr
Max. Min.
03 19:15 W 9 16.09 Fair CLR 21 3 31% 76.33 0.0
03 18:55 NW 11 16.09 Fair CLR 21 2 29% 76.33 0.0
03 18:35 NW 11 16.09 Fair CLR 21 2 29% 76.33 0.0
03 18:15 NW 9 16.09 Fair CLR 21 1 27% 76.33 0.0
03 17:55 N 15 16.09 Fair CLR 21 1 27% 76.35 0.0
03 17:35 NW 6 16.09 Fair CLR 21 3 31% 76.35 0.0
03 17:15 Calm 16.09 Fair CLR 21 2 29% 76.38 0.0
03 16:55 NW 15 16.09 Fair CLR 21 2 29% 76.38 0.0
03 16:35 NW 13 16.09 Fair CLR 21 2 29% 76.38 0.0
03 16:15 NW 13 G 26 16.09 Fair CLR 21 2 29% 76.4 0.0
03 15:55 N 13 16.09 Fair CLR 21 3 31% 76.43 0.0
03 15:35 N 7 G 17 4.83 Fair with Haze CLR 21 2 29% 76.45 0.0
03 15:15 N 13 16.09 Fair CLR 21 2 29% 76.45 0.0
03 14:55 N 9 16.09 Fair CLR 20 2 30% 76.5 0.0
03 14:35 W 7 16.09 Fair CLR 20 3 33% 76.5 0.0
03 14:15 W 15 16.09 Fair CLR 20 3 33% 76.53 0.0
03 13:55 NW 13 G 26 16.09 Fair CLR 19 3 35% 76.56 0.0
03 13:35 W 6 G 30 16.09 Fair CLR 18 3 37% 76.56 0.0
03 13:15 NW 13 G 26 16.09 Fair CLR 19 3 35% 76.58 0.0
03 12:55 W 19 16.09 Fair CLR 18 2 34% 76.61 0.0
03 12:35 N 6 16.09 Fair CLR 18 4 40% 76.61 0.0
03 12:15 W 17 16.09 Fair CLR 17 5 45% 76.63 0.0
03 11:55 W 9 G 15 16.09 Fair CLR 17 4 42% 76.63 0.0
03 11:35 NW 17 G 30 16.09 Fair CLR 17 3 39% 76.63 0.0
03 11:15 W 15 16.09 Fair CLR 17 4 42% 76.63 0.0
03 10:55 Calm 16.09 Fair CLR 16 5 48% 76.63 0.0
03 10:35 Calm 16.09 Fair CLR 16 4 45% 76.63 0.0
03 10:15 Calm 16.09 Fair CLR 15 6 55% 76.63 0.0
03 09:55 Calm 16.09 Fair CLR 14 5 55% 76.63 0.0
03 09:35 N 6 16.09 Fair CLR 13 6 63% 76.63 0.0
03 09:15 N 7 16.09 Fair CLR 13 6 63% 76.61 0.0
03 08:55 N 6 16.09 Fair CLR 11 7 77% 76.61 0.0
03 08:35 Calm 16.09 Fair CLR 10 7 82% 76.61 0.0
03 08:15 Calm 16.09 Fair CLR 8 6 87% 76.58 0.0
03 07:55 Calm 16.09 Fair CLR 6 5 93% 76.56 0.0
03 07:35 Calm 16.09 Fair CLR 5 4 93% 76.56 0.0
03 07:15 Calm 16.09 Fair CLR 4 3 93% 76.53 0.0
03 06:35 Calm 1.21 Fog/Mist VV005 4 4 100% 76.5 0.0
03 06:15 Calm 0.40 Fog VV002 3 3 100% 76.5 0.0
03 05:55 Calm 16.09 Fair CLR 5 4 93% 76.5 0.0
03 05:35 Calm 0.80 Light Drizzle VV005 5 4 93% 76.48 0.0
03 05:15 Calm 4.83 Fog/Mist CLR 5 4 93% 76.48 0.0
03 04:55 Calm 4.83 Fog/Mist CLR 5 4 93% 76.48 0.0
03 04:35 Calm 16.09 Fair CLR 5 5 100% 76.48 0.0
03 04:15 Calm 16.09 Fair CLR 5 5 100% 76.45 0.0
03 03:55 Calm 16.09 Fair CLR 5 5 100% 76.43 0.0
03 03:35 Calm 16.09 Fair CLR 5 5 100% 76.43 0.0
03 03:15 Calm 16.09 Fair CLR 5 5 100% 76.4 0.0
03 02:55 Calm 16.09 Fair CLR 6 5 93% 76.4 0.0
03 02:35 Calm 2.41 Light Drizzle VV007 5 5 100% 76.38 0.0
03 02:15 Calm 16.09 Fair CLR 6 5 93% 76.38 0.0
03 01:55 Calm 16.09 Fair CLR 5 5 100% 76.38 0.0
03 01:35 W 6 16.09 Fair CLR 7 5 87% 76.4 0.0
03 01:15 Calm 16.09 Fair CLR 7 6 93% 76.38 0.0
03 00:55 Calm 16.09 Fair CLR 7 6 93% 76.38 0.0
03 00:35 Calm 16.09 Fair CLR 7 6 93% 76.35 0.0
03 00:15 Calm 16.09 Fair CLR 7 6 93% 76.35 0.0
02 23:55 Calm 16.09 Fair CLR 8 6 87% 76.35 0.0
02 23:35 Calm 16.09 Fair CLR 8 6 87% 76.33 0.0
02 23:15 Calm 16.09 Fair CLR 8 6 87% 76.33 0.0
02 22:55 Calm 16.09 Fair CLR 10 6 76% 76.33 0.0
02 22:35 Calm 16.09 Fair CLR 10 6 76% 76.3 0.0
02 22:15 Calm 16.09 Fair CLR 11 6 72% 76.28 0.0
02 21:55 Calm 16.09 Fair CLR 12 5 63% 76.25 0.0
02 21:35 Calm 16.09 Fair CLR 12 5 63% 76.23 0.0
02 21:15 NW 6 16.09 Fair CLR 13 3 51% 76.23 0.0
02 20:55 NW 6 16.09 Fair CLR 15 3 45% 76.2 0.0
02 20:35 N 11 16.09 Fair CLR 16 2 39% 76.17 0.0
02 20:15 N 9 16.09 Fair CLR 17 2 37% 76.15 0.0
02 19:55 NW 15 16.09 Fair CLR 17 2 37% 76.12 0.0
02 19:35 N 9 16.09 Fair CLR 18 2 34% 76.1 0.0
02 19:15 NW 19 G 30 16.09 Fair CLR 18 1 32% 76.1 0.0
02 18:55 N 15 G 28 16.09 Fair CLR 19 1 30% 76.07 0.0
02 18:35 N 20 G 28 16.09 Fair CLR 20 1 28% 76.07 0.0
02 18:15 N 20 G 28 16.09 Fair CLR 20 1 28% 76.05 0.0
02 17:55 N 15 16.09 Fair CLR 20 1 28% 76.05 0.0
02 17:35 NW 24 G 30 16.09 Fair CLR 20 1 28% 76.05 0.0
02 17:15 N 19 G 28 16.09 Fair CLR 20 1 28% 76.02 0.0
02 16:55 N 19 G 31 16.09 Fair CLR 20 1 28% 76 0.0
02 16:35 NW 26 G 33 16.09 Fair CLR 21 2 29% 76 0.0
02 15:55 N 17 G 26 16.09 Fair CLR 20 3 33% 76 0.0
02 15:35 N 17 G 33 16.09 Partly Cloudy SCT060 21 4 33% 76.02 0.0
02 15:15 N 17 G 30 16.09 Mostly Cloudy BKN060 21 6 38% 76 0.0
02 14:55 N 13 16.09 Mostly Cloudy BKN050 20 7 43% 76 0.0
02 14:35 N 13 16.09 Partly Cloudy SCT050 20 7 43% 76 0.0
02 14:15 N 9 16.09 Partly Cloudy SCT050 20 8 46% 76 0.0
02 13:55 N 11 16.09 Fair CLR 20 8 46% 76 0.0
02 13:35 NW 11 16.09 Fair CLR 19 7 46% 76 0.0
02 13:15 N 11 16.09 Fair CLR 19 7 46% 76.02 0.0
02 12:55 Calm 16.09 Partly Cloudy SCT090 17 9 60% 76.05 0.0
02 12:35 Calm 16.09 Overcast OVC090 16 8 59% 76.05 0.0
02 12:15 NW 6 16.09 Overcast OVC090 16 8 59% 76.07 0.0
02 11:55 NW 13 16.09 Overcast OVC090 16 9 63% 76.07 0.0
02 11:35 N 13 16.09 Overcast OVC090 15 9 68% 76.07 0.0
02 11:15 N 11 16.09 Overcast OVC090 13 8 72% 76.07 0.0
02 10:55 N 7 16.09 Overcast BKN090 OVC120 14 9 72% 76.05 0.0
02 10:35 N 7 16.09 Mostly Cloudy BKN090 BKN120 13 9 77% 76.05 0.0
02 10:15 N 6 16.09 Overcast OVC090 12 8 77% 76.05 0.0
02 09:55 N 6 16.09 Overcast OVC090 12 9 82% 76.05 0.0
02 09:35 N 6 16.09 Light Rain SCT039 OVC090 12 10 88% 76 0.0
02 09:15 N 7 16.09 Light Drizzle OVC080 12 10 88% 76 0.0
02 08:55 NW 7 16.09 Light Rain BKN090 OVC110 12 10 88% 76 0.0
02 08:35 N 6 16.09 Light Rain SCT060 BKN090 OVC110 12 10 88% 75.95 0.0
02 08:15 N 6 16.09 Light Rain OVC090 12 10 88% 76 0.0
02 07:55 NW 9 16.09 Light Rain SCT070 OVC100 12 10 88% 76.05 0.0
02 07:35 Calm 16.09 Light Rain SCT070 BKN090 OVC120 12 11 94% 75.92 0.0
02 07:15 NW 9 16.09 Light Rain SCT050 SCT070 BKN085 12 11 94% 76 0.0
02 06:55 N 9 16.09 Light Rain SCT070 SCT095 BKN110 12 11 94% 75.9 0.0 0.05
02 06:35 N 6 16.09 Light Rain BKN095 OVC110 13 12 94% 75.95 0.0 0.03
02 06:15 NW 7 11.27 Light Rain OVC085 13 12 94% 76 0.0
02 05:55 SW 9 16.09 Overcast SCT004 OVC085 13 12 94% 76 0.0
02 05:35 SW 6 16.09 Overcast OVC004 13 12 94% 75.95 0.0
02 05:15 Calm 16.09 Light Rain OVC004 13 12 94% 75.92 0.0
02 04:55 Calm 16.09 Light Rain BKN004 BKN019 OVC075 13 12 94% 75.95 0.0 0.05
02 04:35 W 6 16.09 Light Rain SCT004 BKN065 OVC080 13 12 94% 75.95 0.0 0.05
02 04:15 W 6 16.09 Light Rain SCT006 BKN065 OVC080 13 12 94% 75.97 0.0
02 03:55 Calm 11.27 Light Rain BKN006 BKN017 OVC075 13 12 94% 75.97 0.0 0.15
02 03:15 Calm 11.27 Light Rain SCT006 BKN065 OVC110 13 12 94% 75.97 0.0 0.05
02 02:55 Calm 16.09 Light Rain SCT006 BKN065 OVC110 13 12 94% 76 0.0 0.15
02 02:35 Calm 11.27 Light Rain SCT004 BKN070 OVC090 13 12 94% 76 0.0 0.1
02 02:15 Calm 8.05 Light Rain SCT004 BKN070 OVC090 13 12 94% 76 0.0 0.05
02 01:55 Calm 8.05 Light Rain SCT004 BKN070 OVC090 13 13 100% 76.05 0.0 0.23
02 01:35 Calm 4.83 Light Rain SCT024 BKN080 OVC100 13 13 100% 76.05 0.0 0.13
02 01:15 Calm 16.09 Light Rain OVC080 13 13 100% 76.07 0.0 0.03
02 00:55 Calm 16.09 Light Rain BKN090 OVC110 13 13 100% 76.05 0.0 0.05
02 00:35 S 6 16.09 Light Rain BKN090 OVC110 13 13 100% 76.05 0.0 0.03
02 00:15 Calm 11.27 Light Rain BKN090 OVC120 13 13 100% 76.05 0.0
01 23:55 Calm 11.27 Light Rain OVC110 13 13 100% 76.05 0.0 0.05
01 23:35 Calm 11.27 Light Rain SCT090 OVC120 13 13 100% 76.05 0.0 0.03
01 23:15 Calm 16.09 Light Rain SCT100 OVC110 14 13 94% 76.07 0.0 0.03
01 22:55 Calm 16.09 Light Rain OVC100 14 13 94% 76.1 0.0 0.03
01 22:35 Calm 16.09 Light Rain OVC110 14 13 94% 76.1 0.0
01 22:15 Calm 16.09 Light Rain BKN120 14 13 94% 76.1 0.0
01 21:55 Calm 16.09 Light Rain BKN120 14 13 94% 76.1 0.0 0.03
01 21:35 Calm 16.09 Light Rain SCT095 OVC120 14 12 88% 76.07 0.0
01 21:15 Calm 16.09 Light Rain BKN095 OVC120 14 12 88% 76.07 0.0
01 20:55 Calm 16.09 Light Rain OVC110 15 12 82% 76.05 0.0
01 20:35 Calm 16.09 Light Rain OVC110 15 12 82% 76 0.0
01 20:15 Calm 16.09 Overcast OVC100 16 11 72% 75.97 0.0
01 19:55 Calm 16.09 Light Rain OVC110 16 11 72% 75.95 0.0
01 19:35 Calm 16.09 Overcast SCT090 OVC110 16 10 68% 75.97 0.0
01 19:15 Calm 16.09 Overcast SCT080 OVC090 16 10 68% 75.97 0.0
01 18:55 Calm 16.09 Overcast SCT070 OVC100 17 10 64% 75.97 0.0
01 18:35 Calm 16.09 Overcast BKN100 OVC120 17 11 68% 75.95 0.0
01 18:15 N 6 16.09 Mostly Cloudy BKN110 17 10 64% 75.97 0.0
01 17:55 Calm 16.09 Partly Cloudy SCT090 SCT110 17 11 68% 75.95 0.0
01 17:35 N 6 16.09 Overcast SCT080 OVC090 17 12 73% 75.95 0.0
01 17:15 N 6 16.09 Light Rain BKN090 OVC110 17 11 68% 76 0.0
01 16:55 N 7 16.09 Overcast SCT080 OVC100 17 11 68% 76 0.0
01 16:35 N 7 16.09 Light Rain OVC090 17 10 64% 76 0.0
01 16:15 Calm 16.09 Light Rain SCT075 OVC090 17 11 68% 76.05 0.0
01 15:55 Calm 16.09 Overcast OVC090 17 10 64% 76.05 0.0
01 15:35 Calm 16.09 Overcast OVC090 18 9 56% 76.07 0.0
01 15:15 Calm 16.09 Overcast OVC090 18 7 49% 76.1 0.0
01 14:55 Calm 16.09 Overcast OVC100 18 8 52% 76.07 0.0
01 14:35 NW 7 16.09 Overcast OVC100 18 8 52% 76.1 0.0
01 14:15 W 6 16.09 Overcast OVC100 18 8 52% 76.1 0.0
01 13:55 NW 9 16.09 Overcast OVC100 18 9 56% 76.1 0.0
01 13:35 N 6 16.09 Overcast OVC100 18 10 60% 76.1 0.0
01 13:15 N 9 16.09 Overcast OVC100 18 8 52% 76.1 0.0
01 12:55 NW 6 16.09 Overcast OVC100 18 8 52% 76.1 0.0
01 12:35 Calm 16.09 Overcast OVC110 18 8 52% 76.12 0.0
01 12:15 W 6 16.09 Mostly Cloudy BKN110 18 9 56% 76.12 0.0
01 11:55 Calm 16.09 Mostly Cloudy BKN110 18 9 56% 76.12 0.0
01 11:35 Calm 16.09 Partly Cloudy SCT110 17 9 60% 76.1 0.0
01 11:15 Calm 16.09 Mostly Cloudy BKN110 17 8 56% 76.1 0.0
01 10:55 Calm 16.09 Overcast OVC120 16 8 59% 76.07 0.0
01 10:35 Calm 16.09 Mostly Cloudy BKN120 16 10 68% 76.07 0.0
01 10:15 Calm 16.09 Mostly Cloudy SCT090 BKN120 15 10 72% 76.07 0.0
01 09:55 Calm 16.09 Mostly Cloudy BKN090 BKN120 15 10 72% 76.07 0.0
01 09:35 Calm 16.09 Overcast OVC090 15 10 72% 76.1 0.0
01 09:15 Calm 16.09 Overcast BKN100 OVC120 14 11 82% 76.1 0.0
01 08:55 Calm 16.09 Overcast OVC100 13 11 88% 76.1 0.0
01 08:35 Calm 16.09 Light Rain OVC100 13 11 88% 76.07 0.0
01 08:15 Calm 16.09 Overcast OVC100 13 11 88% 76.07 0.0
01 07:55 SE 6 16.09 Light Rain OVC110 12 11 94% 76.07 0.0
01 07:35 Calm 16.09 Light Rain OVC090 12 11 94% 76.07 0.0
01 07:15 Calm 16.09 Light Rain OVC080 12 11 94% 76.05 0.0
01 06:55 Calm 16.09 Light Rain OVC080 12 11 94% 76 0.0
01 06:35 Calm 16.09 Light Rain OVC080 13 10 82% 76 0.0
01 06:15 Calm 16.09 Light Rain OVC090 13 10 82% 76 0.0
01 05:55 Calm 16.09 Overcast OVC100 13 10 82% 75.97 0.0
01 05:35 Calm 16.09 Light Drizzle OVC100 13 11 88% 75.97 0.0
01 05:15 Calm 16.09 Overcast OVC100 13 11 88% 75.97 0.0
01 04:55 Calm 16.09 Light Rain OVC100 13 10 82% 76.02 0.0
01 04:35 Calm 16.09 Overcast SCT080 OVC110 14 8 67% 76 0.0
01 04:15 Calm 16.09 Mostly Cloudy SCT080 BKN110 14 9 72% 75.97 0.0
01 03:55 Calm 16.09 Partly Cloudy SCT110 13 10 82% 75.97 0.0
01 03:35 Calm 16.09 Mostly Cloudy BKN110 14 10 77% 76 0.0
01 03:15 Calm 16.09 Mostly Cloudy BKN120 14 10 77% 75.97 0.0
01 02:55 Calm 16.09 Fair CLR 13 11 88% 75.97 0.0
01 02:35 W 9 16.09 Fair CLR 13 11 88% 76 0.0
01 02:15 Calm 16.09 Fair CLR 15 11 77% 75.97 0.0
01 01:55 Calm 16.09 Fair CLR 13 12 94% 75.97 0.0
01 01:35 Calm 16.09 Fair CLR 14 12 88% 76 0.0
01 01:15 Calm 16.09 Fair CLR 13 12 94% 76 0.0
01 00:55 Calm 16.09 Fair CLR 14 12 88% 76 0.0
01 00:35 Calm 16.09 Fair CLR 14 12 88% 76.05 0.0
01 00:15 Calm 16.09 Fair CLR 14 11 82% 76 0.0
30 23:55 Calm 16.09 Fair CLR 15 11 77% 76 0.0
30 23:35 Calm 16.09 Fair CLR 16 11 72% 76.05 0.0
30 23:15 Calm 16.09 Fair CLR 15 11 77% 76.05 0.0
30 22:55 Calm 16.09 Fair CLR 15 11 77% 76.05 0.0
30 22:35 Calm 16.09 Fair CLR 16 11 72% 76.05 0.0
30 21:55 Calm 16.09 Fair CLR 17 11 68% 76 0.0
30 21:35 Calm 16.09 Fair CLR 18 11 64% 75.97 0.0
30 20:55 Calm 16.09 Fair CLR 18 12 68% 75.95 0.0
30 20:35 N 7 16.09 Fair CLR 18 11 64% 75.92 0.0
30 20:15 N 11 16.09 Fair CLR 18 12 68% 75.92 0.0
30 19:55 Calm 16.09 Fair CLR 19 12 64% 75.92 0.0
Date Time (edt) Wind (kph) Vis. (km) Weather Sky Cond. Air Dwpt Max. Min. Relative Humidity Wind Chill (°C) Heat Index (°C) altimeter (cm) sea level (mb) 1 hr 3 hr 6 hr
6 hour
Temperature (ºC) Pressure Precipitation (cm)